KC8HAM Weather Reports


time (UTC)temp
C
wind
direction
speed
KPH
gust
KPH
rain 1hr
cm
rain 24hr
cm
rain mn
cm
humidity
%
barometer
mb
20260510142750 15 8 1.6 6.4 0.00 0.00 0.00 83 1014.4
20260510142249 15 328 1.6 6.4 0.00 0.00 0.00 83 1014.3
20260510142016 15 286 3.2 11.3 0.00 0.00 0.00 83 1014.2
20260510141247 15 312 3.2 11.3 0.00 0.00 0.00 83 1014.2
20260510140744 15 4 4.8 9.7 0.00 0.00 0.00 84 1014.2
20260510140244 15 297 3.2 11.3 0.00 0.00 0.00 85 1014.2
20260510135743 15 299 3.2 11.3 0.00 0.00 0.00 83 1014.1
20260510135503 15 304 3.2 6.4 0.00 0.00 0.00 84 1014.1
20260510134743 15 291 1.6 6.4 0.00 0.00 0.00 84 1014.1
20260510134244 15 18 1.6 6.4 0.00 0.00 0.00 85 1014.2
20260510133743 15 343 3.2 6.4 0.00 0.00 0.00 86 1014.1
20260510133244 15 307 3.2 8.0 0.00 0.00 0.00 85 1014.1
20260510132743 15 319 1.6 8.0 0.00 0.00 0.00 85 1013.9
20260510132244 15 254 1.6 4.8 0.00 0.00 0.00 86 1013.7
20260510131741 15 316 1.6 6.4 0.00 0.00 0.00 85 1013.7
20260510131238 14 324 3.2 6.4 0.00 0.00 0.00 86 1013.7
20260510130738 14 329 3.2 8.0 0.00 0.00 0.00 88 1013.8
20260510130456 13 303 3.2 8.0 0.00 0.00 0.00 88 1013.7
20260510125739 13 289 3.2 6.4 0.00 0.00 0.00 88 1013.7
20260510125238 13 251 3.2 6.4 0.00 0.03 0.00 88 1013.7
20260510124739 13 257 3.2 4.8 0.00 0.03 0.00 89 1013.6
20260510124238 13 207 3.2 4.8 0.00 0.03 0.00 88 1013.6
20260510123738 13 274 3.2 6.4 0.00 0.03 0.00 89 1013.6
20260510123239 13 172 3.2 8.0 0.00 0.03 0.00 89 1013.6
20260510122738 13 297 3.2 8.0 0.00 0.05 0.00 89 1013.5
20260510122239 13 252 4.8 9.7 0.00 0.05 0.00 89 1013.5
20260510121736 13 279 4.8 9.7 0.00 0.05 0.00 89 1013.4
20260510121236 13 201 4.8 8.0 0.00 0.08 0.00 89 1013.2
20260510120736 13 244 3.2 8.0 0.00 0.10 0.00 89 1013.3
20260510120237 13 223 3.2 6.4 0.00 0.10 0.00 89 1013.2
20260510115736 13 241 3.2 6.4 0.00 0.13 0.00 89 1013.1
20260510115459 13 227 3.2 6.4 0.00 0.15 0.00 88 1013.1
20260510114736 13 178 3.2 6.4 0.00 0.15 0.00 89 1012.9
20260510114236 12 242 3.2 4.8 0.00 0.15 0.00 91 1012.9
20260510113953 12 237 3.2 4.8 0.00 0.18 0.00 91 1012.8
20260510113237 12 283 3.2 6.4 0.00 0.18 0.00 91 1012.7
20260510112736 12 268 3.2 6.4 0.00 0.18 0.00 91 1012.5
20260510112233 12 209 3.2 6.4 0.00 0.18 0.00 91 1012.2
20260510111953 12 280 1.6 3.2 0.00 0.18 0.00 91 1012.2
20260510111458 12 228 1.6 3.2 0.00 0.20 0.00 91 1012.0
20260510110734 12 270 1.6 3.2 0.00 0.20 0.00 92 1012.0
20260510110235 12 281 3.2 4.8 0.00 0.20 0.00 92 1011.9
20260510105734 12 226 3.2 4.8 0.00 0.23 0.00 92 1011.7
20260510105233 12 243 3.2 4.8 0.00 0.23 0.00 91 1011.6
20260510104734 12 228 3.2 4.8 0.00 0.23 0.00 92 1011.6
20260510104234 12 238 3.2 6.4 0.00 0.23 0.00 92 1011.5
20260510103735 12 227 3.2 6.4 0.00 0.25 0.00 92 1011.6
20260510103233 12 221 3.2 6.4 0.00 0.25 0.00 92 1011.6
20260510102733 12 236 4.8 6.4 0.00 0.28 0.00 92 1011.5
20260510102233 12 214 3.2 6.4 0.00 0.28 0.00 92 1011.5
20260510101938 12 206 3.2 6.4 0.00 0.28 0.00 92 1011.4
20260510101220 12 224 3.2 6.4 0.00 0.28 0.00 92 1011.2
20260510100720 12 277 3.2 4.8 0.00 0.28 0.00 91 1011.2
20260510100220 12 242 3.2 6.4 0.00 0.28 0.00 91 1010.9
20260510095720 12 223 4.8 6.4 0.00 0.28 0.00 91 1010.8
20260510095221 12 202 3.2 6.4 0.00 0.28 0.00 91 1010.8
20260510094720 12 201 3.2 6.4 0.00 0.28 0.00 90 1010.7
20260510094206 12 182 3.2 4.8 0.00 0.30 0.00 90 1010.7
20260510093706 12 160 3.2 4.8 0.00 0.30 0.00 91 1010.6
20260510093206 12 221 3.2 4.8 0.00 0.30 0.00 90 1010.6
20260510092707 12 225 3.2 4.8 0.00 0.33 0.00 90 1010.6
20260510092431 12 223 3.2 4.8 0.00 0.33 0.00 89 1010.4
20260510091707 12 170 3.2 4.8 0.00 0.33 0.00 90 1010.4
20260510091206 12 191 1.6 4.8 0.00 0.33 0.00 90 1010.5
20260510090706 12 234 1.6 6.4 0.00 0.33 0.00 89 1010.4
20260510090154 12 0 1.6 6.4 0.00 0.33 0.00 89 1010.4
20260510085652 13 227 3.2 4.8 0.00 0.33 0.00 88 1010.4
20260510085415 13 217 3.2 4.8 0.00 0.36 0.00 88 1010.3
20260510084653 13 242 1.6 4.8 0.00 0.36 0.00 88 1010.3
20260510084152 13 251 1.6 3.2 0.00 0.38 0.00 88 1010.3
20260510083652 13 213 1.6 4.8 0.00 0.38 0.00 87 1010.4
20260510083152 13 241 3.2 6.4 0.00 0.38 0.00 86 1010.4
20260510082652 13 211 3.2 6.4 0.00 0.38 0.00 86 1010.4
20260510082150 13 241 3.2 8.0 0.00 0.41 0.00 86 1010.4
20260510081649 13 228 3.2 8.0 0.00 0.41 0.00 86 1010.4
20260510081150 13 235 3.2 8.0 0.00 0.43 0.00 85 1010.4
20260510080650 13 264 3.2 8.0 0.00 0.43 0.00 85 1010.3
20260510080412 13 269 4.8 9.7 0.00 0.43 0.00 85 1010.3
20260510075650 13 224 4.8 9.7 0.00 0.46 0.00 86 1010.3
20260510075150 13 197 4.8 8.0 0.00 0.48 0.00 86 1010.3
20260510074650 13 192 3.2 6.4 0.00 0.48 0.00 86 1010.2
20260510074150 13 236 3.2 8.0 0.00 0.48 0.00 86 1010.1
20260510073651 13 218 3.2 8.0 0.00 0.48 0.00 86 1010.1
20260510073150 13 258 3.2 8.0 0.00 0.48 0.00 86 1010.0
20260510072649 13 209 3.2 6.4 0.00 0.48 0.00 86 1010.0
20260510072145 13 143 3.2 8.0 0.00 0.48 0.00 85 1010.1
20260510071645 13 242 3.2 8.0 0.00 0.48 0.00 85 1010.1
20260510071145 13 268 3.2 8.0 0.00 0.48 0.00 85 1010.1
20260510070906 13 221 3.2 8.0 0.00 0.48 0.00 85 1010.1
20260510070145 13 243 3.2 8.0 0.00 0.48 0.00 85 1010.0
20260510065646 13 208 3.2 8.0 0.00 0.48 0.00 85 1010.0
20260510065146 13 230 4.8 8.0 0.00 0.48 0.00 85 1010.0
20260510064646 13 227 4.8 8.0 0.00 0.48 0.00 84 1010.0
20260510064145 14 241 4.8 9.7 0.00 0.48 0.00 84 1010.0
20260510063646 14 207 6.4 12.9 0.00 0.48 0.00 84 1010.0
20260510063403 14 228 6.4 12.9 0.00 0.48 0.00 84 1010.1
20260510062904 14 208 6.4 11.3 0.00 0.48 0.00 84 1010.1
20260510062143 14 242 6.4 11.3 0.00 0.48 0.00 84 1010.0
20260510061644 14 227 6.4 11.3 0.00 0.48 0.00 83 1010.0
20260510061143 14 230 6.4 11.3 0.00 0.48 0.00 83 1010.0
20260510060644 14 242 6.4 11.3 0.00 0.48 0.00 83 1010.0
20260510060143 14 240 6.4 12.9 0.00 0.48 0.00 83 1010.0
20260510055644 14 246 6.4 12.9 0.00 0.48 0.00 83 1010.0
20260510055143 14 220 8.0 12.9 0.00 0.48 0.00 83 1010.1
20260510054140 14 231 8.0 12.9 0.00 0.48 0.00 83 1010.1
20260510053641 14 246 6.4 12.9 0.00 0.48 0.00 83 1010.1
20260510053139 14 219 6.4 12.9 0.00 0.48 0.00 82 1010.1
20260510052639 14 264 8.0 12.9 0.00 0.48 0.00 83 1010.1
20260510052139 14 207 8.0 12.9 0.00 0.48 0.00 82 1010.1
20260510051639 14 230 8.0 14.5 0.00 0.48 0.00 82 1010.1
20260510051139 14 215 8.0 14.5 0.00 0.48 0.00 82 1010.1
20260510050640 14 241 8.0 12.9 0.00 0.48 0.00 82 1010.1
20260510050139 14 214 8.0 12.9 0.00 0.48 0.00 82 1010.1
20260510045640 14 226 6.4 12.9 0.00 0.48 0.00 82 1010.0
20260510045139 14 239 6.4 12.9 0.00 0.48 0.00 82 1010.1
20260510044859 14 241 6.4 11.3 0.00 0.48 0.00 82 1010.0
20260510044139 14 224 6.4 11.3 0.00 0.48 0.00 82 1010.0
20260510043639 14 236 6.4 12.9 0.00 0.48 0.00 82 1010.0
20260510043139 14 204 6.4 12.9 0.00 0.48 0.00 82 1010.0
20260510042639 14 232 4.8 11.3 0.00 0.48 0.00 82 1009.9
20260510042139 14 222 6.4 11.3 0.00 0.48 0.00 82 1010.0
20260510041905 14 224 6.4 9.7 0.00 0.48 0.00 82 1010.0
20260510041139 14 226 6.4 9.7 0.00 0.48 0.00 82 1010.0
20260510040640 14 227 4.8 8.0 0.00 0.48 0.00 81 1010.0
20260510040139 14 222 4.8 9.7 0.00 0.48 0.00 81 1009.9
20260510035137 14 218 4.8 9.7 0.00 0.48 0.48 81 1009.8
20260510034137 14 220 4.8 9.7 0.00 0.48 0.48 80 1009.8
20260510033636 14 227 4.8 9.7 0.00 0.48 0.48 80 1009.8
20260510033137 15 216 4.8 9.7 0.00 0.48 0.48 80 1009.8
20260510032637 15 220 4.8 9.7 0.00 0.48 0.48 80 1009.7
20260510032137 15 205 4.8 11.3 0.00 0.48 0.48 79 1009.7
20260510031637 15 230 6.4 11.3 0.00 0.48 0.48 79 1009.5
20260510031137 15 25 6.4 11.3 0.00 0.48 0.48 79 1009.5
20260510030638 15 219 6.4 11.3 0.00 0.48 0.48 78 1009.5
20260510030137 15 205 6.4 12.9 0.00 0.48 0.48 78 1009.5
20260510025635 15 220 6.4 14.5 0.00 0.48 0.48 79 1009.4
20260510025131 15 223 6.4 14.5 0.00 0.48 0.48 78 1009.4
20260510024132 15 214 8.0 14.5 0.00 0.48 0.48 77 1009.3
20260510023632 15 289 6.4 14.5 0.00 0.48 0.48 77 1009.3
20260510023132 15 197 6.4 11.3 0.00 0.48 0.48 77 1009.1
20260510022851 15 223 6.4 11.3 0.00 0.48 0.48 77 1009.0
20260510022132 15 224 6.4 12.9 0.00 0.48 0.48 77 1009.0
20260510021855 15 224 6.4 12.9 0.00 0.48 0.48 76 1008.9
20260510021132 15 209 4.8 12.9 0.00 0.48 0.48 77 1008.8
20260510020853 15 219 4.8 11.3 0.00 0.48 0.48 77 1008.8
20260510020130 15 234 4.8 9.7 0.00 0.48 0.48 77 1008.8
20260510015627 15 217 3.2 9.7 0.00 0.48 0.48 76 1008.9
20260510015126 15 215 3.2 8.0 0.00 0.48 0.48 76 1008.9
20260510014847 15 220 3.2 8.0 0.00 0.48 0.48 75 1008.8
20260510014128 15 220 3.2 8.0 0.00 0.48 0.48 75 1008.7
20260510013627 15 211 3.2 8.0 0.00 0.48 0.48 75 1008.7
20260510013127 15 218 3.2 8.0 0.00 0.48 0.48 74 1008.7
20260510012851 15 237 3.2 9.7 0.00 0.48 0.48 74 1008.7
20260510012127 16 234 3.2 9.7 0.00 0.48 0.48 74 1008.6
20260510011628 16 220 3.2 8.0 0.00 0.48 0.48 73 1008.5
20260510011127 16 210 3.2 8.0 0.00 0.48 0.48 73 1008.4
20260510010624 16 217 3.2 8.0 0.00 0.48 0.48 73 1008.3
20260510010124 16 226 3.2 8.0 0.00 0.48 0.48 72 1008.3
20260510005844 16 228 3.2 8.0 0.00 0.48 0.48 71 1008.2
20260510005124 16 215 3.2 8.0 0.00 0.48 0.48 71 1008.2
20260510004625 16 220 3.2 8.0 0.00 0.48 0.48 70 1008.2
20260510004126 16 210 3.2 6.4 0.00 0.48 0.48 70 1008.2
20260510003625 16 197 3.2 6.4 0.00 0.48 0.48 69 1008.1
20260510003125 17 222 3.2 8.0 0.00 0.48 0.48 69 1008.0
20260510002626 17 233 3.2 9.7 0.00 0.48 0.48 68 1008.0
20260510002125 17 206 4.8 11.3 0.00 0.48 0.48 68 1008.0
20260510001623 17 228 6.4 11.3 0.00 0.48 0.48 67 1008.0
20260510001123 17 235 4.8 11.3 0.00 0.48 0.48 66 1008.0
20260510000623 17 237 6.4 9.7 0.00 0.48 0.48 67 1008.0
20260510000350 17 235 4.8 9.7 0.00 0.48 0.48 66 1008.0
20260509235623 18 249 4.8 9.7 0.00 0.48 0.48 65 1007.9
20260509235123 18 218 4.8 9.7 0.00 0.48 0.48 64 1007.8
20260509234623 18 198 4.8 9.7 0.00 0.48 0.48 64 1007.7
20260509234124 18 225 6.4 12.9 0.00 0.48 0.48 63 1007.7
20260509233846 18 218 6.4 12.9 0.00 0.48 0.48 62 1007.6
20260509233123 18 170 6.4 14.5 0.00 0.48 0.48 62 1007.6
20260509232624 18 222 8.0 14.5 0.00 0.48 0.48 62 1007.6
20260509232121 18 219 8.0 16.1 0.00 0.48 0.48 61 1007.6
20260509231618 18 235 8.0 16.1 0.00 0.48 0.48 62 1007.5
20260509231117 19 200 9.7 17.7 0.00 0.48 0.48 61 1007.6
20260509230618 19 208 8.0 17.7 0.00 0.48 0.48 61 1007.5
20260509230339 19 171 8.0 17.7 0.00 0.48 0.48 61 1007.6
20260509225619 19 220 8.0 17.7 0.00 0.48 0.48 61 1007.6
20260509225118 19 185 8.0 16.1 0.00 0.48 0.48 61 1007.6
20260509224619 19 242 8.0 16.1 0.00 0.48 0.48 61 1007.7
20260509224119 19 216 9.7 16.1 0.00 0.48 0.48 61 1007.6
20260509223618 19 220 9.7 17.7 0.00 0.48 0.48 60 1007.6
20260509223336 19 185 8.0 17.7 0.00 0.48 0.48 60 1007.7
20260509222615 19 225 9.7 20.9 0.00 0.48 0.48 59 1007.8
20260509222116 19 232 9.7 20.9 0.00 0.48 0.48 60 1007.9
20260509221617 18 210 9.7 17.7 0.00 0.48 0.48 61 1007.9
20260509221117 18 217 8.0 17.7 0.00 0.48 0.48 62 1008.0
20260509220618 18 208 9.7 17.7 0.00 0.48 0.48 60 1008.1
20260509220118 19 243 9.7 17.7 0.00 0.48 0.48 60 1008.1
20260509215617 19 204 9.7 17.7 0.00 0.48 0.48 58 1007.9
20260509215118 19 168 8.0 17.7 0.00 0.48 0.48 58 1008.0
20260509214617 18 197 8.0 19.3 0.00 0.48 0.48 60 1008.0
20260509214118 18 217 9.7 19.3 0.00 0.48 0.48 61 1007.9
20260509213618 19 185 9.7 19.3 0.00 0.48 0.48 59 1008.0
20260509213116 19 292 6.4 16.1 0.00 0.48 0.48 58 1007.9
20260509212613 19 241 8.0 17.7 0.00 0.48 0.48 59 1007.9
20260509212114 19 218 9.7 19.3 0.00 0.48 0.48 59 1007.9
20260509211614 19 210 9.7 19.3 0.00 0.48 0.48 59 1008.0
20260509211113 20 248 8.0 16.1 0.00 0.48 0.48 57 1008.1
20260509210614 19 260 8.0 16.1 0.00 0.48 0.48 58 1008.1
20260509210114 20 236 8.0 16.1 0.00 0.48 0.48 58 1008.1
20260509205615 19 238 9.7 19.3 0.00 0.48 0.48 57 1008.1
20260509205114 19 175 9.7 19.3 0.00 0.48 0.48 59 1008.1
20260509204615 19 239 8.0 16.1 0.00 0.48 0.48 59 1008.0
20260509204114 19 242 9.7 16.1 0.00 0.48 0.48 59 1008.2
20260509203611 18 223 9.7 16.1 0.00 0.48 0.48 59 1008.1
20260509203112 19 210 9.7 20.9 0.00 0.48 0.48 60 1008.1
20260509202608 18 254 8.0 20.9 0.00 0.48 0.48 60 1008.1
20260509202109 18 231 9.7 19.3 0.00 0.48 0.48 60 1008.2
20260509201609 18 267 8.0 16.1 0.00 0.48 0.48 60 1008.3
20260509201109 18 271 8.0 16.1 0.00 0.48 0.48 63 1008.3
20260509200609 18 242 9.7 20.9 0.00 0.48 0.48 64 1008.5
20260509200110 18 273 11.3 25.7 0.00 0.48 0.48 64 1008.5
20260509195609 18 267 9.7 25.7 0.00 0.48 0.48 62 1008.5
20260509195110 18 231 9.7 17.7 0.00 0.48 0.48 63 1008.6
20260509194837 18 285 9.7 17.7 0.00 0.48 0.48 62 1008.5
20260509194328 18 278 9.7 17.7 0.00 0.48 0.48 63 1008.6
20260509193607 18 274 8.0 17.7 0.00 0.48 0.48 62 1008.7
20260509193107 18 228 8.0 14.5 0.00 0.48 0.48 64 1008.7
20260509192606 17 209 8.0 20.9 0.00 0.48 0.48 67 1008.7
20260509192107 17 254 9.7 20.9 0.00 0.48 0.48 67 1008.7
20260509191608 17 221 9.7 17.7 0.00 0.48 0.48 67 1008.7
20260509191107 17 213 9.7 16.1 0.00 0.48 0.48 68 1008.8
20260509190608 18 235 8.0 14.5 0.00 0.48 0.48 68 1008.9
20260509190107 18 248 8.0 14.5 0.00 0.48 0.48 66 1008.8
20260509185604 17 153 8.0 17.7 0.00 0.48 0.48 69 1008.9
20260509185104 17 202 9.7 17.7 0.00 0.48 0.48 67 1008.8
20260509184601 17 204 6.4 14.5 0.00 0.48 0.48 69 1008.9
20260509184102 17 190 6.4 14.5 0.00 0.48 0.48 72 1008.9
20260509183602 16 239 6.4 16.1 0.00 0.48 0.48 71 1009.0
20260509183324 16 224 8.0 16.1 0.00 0.48 0.48 71 1009.0
20260509182822 16 257 8.0 14.5 0.00 0.48 0.48 71 1009.1
20260509182102 16 233 8.0 16.1 0.00 0.48 0.48 73 1009.2
20260509181602 16 202 9.7 16.1 0.00 0.48 0.48 73 1009.1
20260509181103 16 210 6.4 12.9 0.00 0.48 0.48 72 1009.2
20260509180603 16 289 6.4 12.9 0.00 0.48 0.48 74 1009.2
20260509180103 16 205 6.4 12.9 0.00 0.48 0.48 74 1009.1
20260509175600 16 270 6.4 16.1 0.00 0.48 0.48 73 1009.1
20260509175100 16 221 6.4 16.1 0.00 0.48 0.48 74 1009.2
20260509174600 16 254 8.0 17.7 0.00 0.48 0.48 75 1009.1
20260509174100 16 210 8.0 17.7 0.00 0.48 0.48 75 1009.2
20260509173600 16 247 6.4 16.1 0.00 0.48 0.48 76 1009.2
20260509173326 16 216 6.4 12.9 0.00 0.48 0.48 76 1009.3
20260509172600 16 229 6.4 12.9 0.00 0.48 0.48 75 1009.2
20260509172101 16 223 6.4 14.5 0.00 0.48 0.48 76 1009.2
20260509171601 15 225 6.4 14.5 0.00 0.48 0.48 77 1009.2
20260509171100 15 197 6.4 12.9 0.00 0.48 0.48 79 1009.2
20260509170601 15 253 6.4 14.5 0.00 0.48 0.48 80 1009.3
20260509170058 14 237 8.0 14.5 0.00 0.48 0.48 80 1009.2
20260509165557 14 238 9.7 20.9 0.00 0.48 0.48 81 1009.2
20260509165325 14 222 8.0 20.9 0.00 0.48 0.48 82 1009.2
20260509164559 14 150 6.4 11.3 0.00 0.48 0.48 85 1009.1
20260509164058 14 240 6.4 12.9 0.00 0.48 0.48 85 1009.1
20260509163558 14 212 6.4 12.9 0.00 0.48 0.48 85 1009.1
20260509163058 14 213 6.4 16.1 0.00 0.48 0.48 87 1009.1
20260509162559 13 229 9.7 16.1 0.00 0.48 0.48 88 1009.1
20260509162059 13 188 8.0 16.1 0.00 0.48 0.48 89 1009.0
20260509161558 13 229 6.4 14.5 0.00 0.48 0.48 90 1009.1
20260509161059 12 71 6.4 11.3 0.00 0.48 0.48 92 1009.1
20260509160556 12 223 6.4 11.3 0.00 0.48 0.48 94 1009.0
20260509160056 12 218 4.8 11.3 0.00 0.48 0.48 95 1009.0
20260509155556 11 227 4.8 11.3 0.00 0.48 0.48 96 1008.9
20260509155056 11 156 4.8 9.7 0.00 0.48 0.48 96 1008.9
20260509154817 11 219 6.4 9.7 0.00 0.48 0.48 96 1008.7
20260509154057 11 198 4.8 8.0 0.00 0.48 0.48 97 1008.8
20260509153556 11 198 3.2 4.8 0.00 0.48 0.48 97 1008.9
20260509153056 11 212 3.2 4.8 0.00 0.48 0.48 96 1008.9
20260509152556 11 237 3.2 4.8 0.00 0.48 0.48 95 1008.9
20260509152317 11 236 3.2 6.4 0.00 0.48 0.48 95 1008.9
20260509151803 11 225 3.2 6.4 0.00 0.48 0.48 95 1008.8
20260509151027 11 214 3.2 4.8 0.00 0.48 0.48 96 1008.8
20260509150512 11 124 3.2 4.8 0.00 0.48 0.48 96 1008.8
20260509150012 11 224 3.2 4.8 0.00 0.48 0.48 96 1008.8
20260509145512 11 183 4.8 8.0 0.00 0.46 0.46 95 1008.7
20260509145012 11 170 4.8 9.7 0.00 0.46 0.46 96 1008.8
20260509144503 11 218 4.8 9.7 0.00 0.46 0.46 95 1008.8
20260509144004 11 217 4.8 8.0 0.00 0.46 0.46 96 1008.7
20260509143504 11 161 4.8 9.7 0.00 0.46 0.46 96 1008.7
20260509143004 11 203 4.8 9.7 0.00 0.46 0.46 96 1008.8